Regional Weather Roundup
Issued by NWS Wakefield, VA

Home | Current Version | Previous Version | Graphics & Text | Print | Product List | Glossary On
Versions: 1 2 3 4 5 6 7 8 9 10 11 12 13 14 15 16 17 18 19 20 21 22 23 24 25 26 27 28 29 30 31 32 33 34 35 36 37 38 39 40 41 42 43 44 45 46 47 48 49 50
125
ASUS41 KAKQ 280715
RWRAKQ

REGIONAL WEATHER ROUNDUP
NATIONAL WEATHER SERVICE WAKEFIELD VA
300 AM EDT TUE MAR 28 2017

Note: "fair" indicates few or no clouds below 12,000 feet with no
significant weather and/or obstructions to visibility. * = Denotes
station may not report precipitation (e.g., rain,snow,etc.),
thunder or fog.

VAZ042-051-052>054-056-280800-
NORTHERN VIRGINIA

CITY           SKY/WX    TMP DP  RH WIND       PRES   REMARKS
WASH NATIONAL  CLOUDY    61  57  87 CALM      29.87F
DULLES         MOCLDY    55  54  96 S5        29.87F
FORT BELVOIR   CLOUDY    58  53  85 CALM      29.87F
QUANTICO       CLOUDY    61  56  83 SW6       29.89F
FREDERICKSBRG* MOCLDY    66  59  76 S8        29.88F
STAFFORD*      CLOUDY    64  58  81 S5        29.92F
WARRENTON      NOT AVBL
CULPEPER*      CLOUDY    58  56  94 CALM      29.88F
MANASSAS*        N/A    N/A N/A N/A CALM      29.87F
LEESBURG*      MOCLDY    59  59 100 CALM      29.88F
WINCHESTER     CLOUDY    55  54  94 N5        29.88S
FRONT ROYAL*   CLOUDY    61  55  82 CALM      29.85F
LURAY*         CLOUDY    54  54 100 CALM      29.87F
$$

VAZ048-049-060>072-079>083-280800-
CENTRAL AND SOUTH CENTRAL VIRGINIA

CITY           SKY/WX    TMP DP  RH WIND       PRES   REMARKS
RICHMOND       CLOUDY    64  56  75 S8        29.91F
CHESTERFIELD*  CLOUDY    63  43  48 S6        29.93F
PETERSBURG*    MOCLDY    60  55  82 CALM      29.93F
HANOVER        MOCLDY    66  54  65 S7        29.92F
TAPPAHANNOCK*  PTCLDY    65  49  56 S7        29.91F
QUINTON*       PTSUNNY   65  57  75 MISG      29.91F
CHARLOTTSVILLE LGT RAIN  64  59  83 SW6       29.88F
GORDONSVILLE*  CLOUDY    55  54  97 SW3       29.88F
ORANGE*        CLOUDY    61  55  82 S5        29.89F
LOUISA*        CLOUDY    70  61  73 S7        29.88F
BUMPASS*       FAIR      65  58  77 SW6       29.89F
FARMVILLE*     CLOUDY    64  59  83 S7        29.89F
CREWE*         FAIR      64  60  90 S6        29.91F
FORT PICKETT*  FAIR      62  54  73 S9G20     29.92F
CHASE CITY*    FAIR      64  56  76 S3        29.92F
CLARKSVILLE*   FAIR      64  55  72 S9        29.92F
SOUTH HILL*    CLOUDY    62  56  81 S8        29.99F
LAWRENCEVILLE* FAIR      62  55  77 S5        29.94S
EMPORIA*       PTCLDY    61  54  77 SE3       29.95F
$$

VAZ088>098-280800-
SOUTHEAST VIRGINIA

CITY           SKY/WX    TMP DP  RH WIND       PRES   REMARKS
NORFOLK        CLEAR     62  53  72 S10       29.95F
VIRGINIA BEACH PTCLDY    61  52  72 SW8       29.95F
NORFOLK NAVAL  MOCLDY    64  52  64 S7        29.95F
WEST POINT*    PTCLDY    64  54  68 S3        29.93F
SALUDA*        FAIR      65  56  74 S8        29.91F
NEWPORT NEWS   CLEAR     63  53  70 SW9       29.94F
LANGLEY AFB    CLEAR     63  54  72 S10       29.93F
FORT EUSTIS    CLEAR     62  53  73 S6        29.91F
WILLIAMSBURG*  CLEAR     64  55  72 CALM      29.94F
HR EXEC AP*    FAIR      63  52  67 S6        29.93F
FRANKLIN*      CLEAR     61  53  76 S7        29.95F
US460-WAKEFLD  CLEAR     62  54  74 S5        29.94F
$$

VAZ020-022-025-037-045-280800-
WEST CENTRAL AND SOUTHWEST VIRGINIA

CITY           SKY/WX    TMP DP  RH WIND       PRES   REMARKS
STAUNTON*      CLOUDY    53  52  97 CALM      29.90F
WAYNESBORO*    CLOUDY    61  59  92 S7        29.89F
HOT SPRINGS VA CLOUDY    55  48  76 SW13G21   29.95F
LYNCHBURG      PTCLDY    62  58  86 SW7       29.91F
DANVILLE       PTCLDY    63  58  83 S5        29.92F
SOUTH BOSTON*  FAIR      63  56  78 S5        29.92F
MARTINSVILLE   CLOUDY    53  53  97 CALM      29.94F FOG
ROANOKE        CLOUDY    63  54  72 CALM      29.91F
BLACKSBURG     CLOUDY    57  52  84 SW3       29.97S
DUBLIN*        CLOUDY    57  53  85 S3        29.95F
MARION*        CLOUDY    55  54  96 SW6       29.97F
HILLSVILLE*    HVY RAIN  56  53  90 CALM      29.94F
RICHLANDS*     PTSUNNY   54  52  93 SW9       29.94F
WISE*          CLOUDY    55  46  71 S10       29.92F
ABINGDON*      CLOUDY    57  57  99 SW3       29.95F
$$

MDZ021>025-VAZ099-100-280800-
SOUTHERN MARYLAND AND THE DELMARVA PENINSULA

CITY           SKY/WX    TMP DP  RH WIND       PRES   REMARKS
PATUXENT RIVER CLOUDY    64  57  78 SW10      29.89F
BAY BRIDGE APT CLOUDY    57  54  88 S9        29.88F
LEONARDTOWN    MOCLDY    63  54  72 SW7       29.91F
DOVER          PTCLDY    62  60  95 S8        29.88F
GEORGETOWN     PTCLDY    59  53  80 S9        29.91F
EASTON         CLOUDY    64  54  71 SW7       29.93F
CAMBRIDGE      MOCLDY    57  54  88 SE7       29.90F
SALISBURY      CLOUDY    58  54  86 S7        29.92F
OCEAN CITY     PTCLDY    54  50  86 SW7       29.94F
WALLOPS ISLAND PTCLDY    52  51  97 S7        29.95F
ACCOMACK*      CLEAR     59  52  78 S7        29.94F
$$

NCZ012>017-030>032-280800-
NORTH CENTRAL AND EASTERN NORTH CAROLINA

CITY           SKY/WX    TMP DP  RH WIND       PRES   REMARKS
ROANOKE RAPIDS FAIR      61  54  77 S6        29.95F
RALEIGH        CLOUDY    65  55  70 SW12      29.96F
ELIZABETH CITY CLEAR     60  54  80 S6        29.98F
AHOSKIE*         N/A     60  54  82 CALM      29.96F
EDENTON*       CLEAR     58  55  88 CALM      29.98F
CURRITUCK*     CLEAR     61  54  78 CALM      29.98F
KILL DEVIL HLS NOT AVBL
MANTEO         CLEAR     58  56  92 SW5       30.00S
CAPE HATTERAS  PTCLDY    67  58  72 W7        30.00F HAZE
TARBORO*       NOT AVBL
GOLDSBORO      PTCLDY    63  60  91 S5        29.97F
WASHINGTON     CLOUDY    60  55  83 CALM      29.99F
GREENVILLE     CLEAR     61  55  82 S5        30.00F
NEW BERN       CLOUDY    62  58  86 S7        29.99F
WILMINGTON     CLOUDY    67  58  72 S12       29.98F
$$

VAZ048-280800-
ELSEWHERE

CITY           SKY/WX    TMP DP  RH WIND       PRES   REMARKS
HARRISBURG PA  MOCLDY    50  49  96 W3        29.89F FOG
BALTIMORE      CLOUDY    54  54 100 CALM      29.88F
ANNAPOLIS      CLOUDY    55  52  89 SE3       29.87F
ANDREWS AFB    CLOUDY    64  56  75 S9        29.87F
PHILADELPHIA   CLOUDY    51  49  92 NE3       29.92F FOG
HENDERSON NC   CLOUDY    60  52  73 S7        29.94F
GREENSBORO     TSTM      62  61  96 S7        29.92F
ROCKY MOUNT    CLEAR     62  56  80 S7        29.97F
$$

VAZ100-280800-
MARINE

STATION/POSITION TIME  TEMP    WIND        PRES    WAVE   SWELL
                       AIR SEA DIR/SP/G            HT/PER HT/PER
                 (UTC) (F)     (DEG/KT/KT) (MB)    (FT/S) (FT/S)
CAPE MAY NJ      0648   53 46  150/  8/ 10 1012.3F
LEWES DE         0648   62 46  210/  5/  8 1012.6F
OCEAN-CITY-INLET 0642   48 45  200/  8/  8 1014.2F
WACHAPREAGUE VA  0642   56 58  210/  6/  7 1013.8F
THOMAS POINT MD  0700   53 46  190/  9/  9   N/A
GOOSES REEF MD   0700   53 46  180/  8/ 10 1012.5    1/ 2
COVE POINT MD    0642   65     230/ 15/ 18 1012.7F
SOLOMONS ISLAND  0642   61 48  210/ 11/ 13   N/A
BISHOPS HEAD MD  0642   54 53  160/ 10/ 11 1013.1F
PINEY POINT MD   0648          230/  8/  9   N/A
POTOMAC MD       0700   56 48  210/  4/  6 1011.5    1/ 2
CAMBRIDGE MD     0642   62 47  170/  5/  8 1011.6F
LEWISETTA VA     0642   65 54  230/ 10/ 12 1012.2F
RAPPAHANNOCK LGT 0648          190/ 16/ 17 1014.1F
STINGRAY PT      0650   53     190/  8/ 10 1013.6F
YORK RVR RNG VA  0642   61     210/ 13/ 14 1012.9F
YORKTOWN VA      0642   65 50  210/  7/ 10 1013.1F
JAMESTOWN VA     0700   64 56  200/ 10/ 12   N/A
DOMINION TERM VA 0642   59     200/  8/  9 1014.1F
KIPTOPEKE VA     0648      51  160/  7/  8   N/A
CHES BAY BRIDGE  0642   63 50  220/ 13/ 15 1013.9F
CAPE HENRY VA    0642   64     200/  9/ 11   N/A
WILLOUBY STN VA  0642   64     210/ 14/ 16 1014.9F
S CRANEY ISL VA  0642   62     200/  7/  9 1014.1F
CAPE HENRY BUOY  0642      51                N/A     3/10   2/17
CAPE CHARLES BUO 0651      49                N/A     3/10   2/11
OFFSHORE WE BUOY 0651      51                N/A     3/ 9   2/11
64NM E OF VA BCH 0650   53 49  200/  8/  8 1015.5F   4/ 9   3/ 9
DUCK PIER NC     0642   62 49  200/  9/ 10 1014.9F
44100 DUCK FRF   0605      51                N/A     3/ 9   2/11
44056 DUCK FRF   0630      50                N/A     3/11   2/11
OREGON INLET NC  0648          210/  7/  8 1015.6F
HATTERAS NC      0642   65 62  230/  6/  8 1015.7F
DIAMOND SHLS NC  0650   71 74  190/ 17/ 21 1015.8F   5/ 8   3/ 8
CAPE LOOKOUT NC  0600   66     200/  7/  9 1016.1F
$$




USA.gov is the U.S. government's official web portal to all federal, state and local government web resources and services.